Theta_e
299 298 298 299 300 299 297 295 293 292 291 290 290 289 288 289 289 289 289 289 288 288 288 288 287 287 287 287 287 287 288 288 288 288 288 288 287 287 287 287 286 286 286 285 285 285 285 285 284 283 282 282 281 281 280 280 280 280 280 280 279 279 279 279 278 278 278 279 279 279 279 279 279 280 279 280 280 279 279 278 278 277 277 277 277
297 297 297 297 298 297 295 293 291 290 289 289 289 288 288 289 289 289 288 288 288 288 288 287 287 286 286 287 287 287 288 288 288 288 288 287 287 287 287 287 286 286 286 286 285 285 285 284 284 283 282 281 281 281 280 280 280 280 280 279 279 279 278 278 277 277 277 278 278 278 278 278 279 279 279 279 279 279 278 277 277 277 277 276 276
297 296 296 296 296 295 293 291 290 289 288 288 288 288 288 289 289 288 288 288 288 287 287 287 286 286 286 287 287 287 288 288 288 288 287 287 287 287 287 287 287 287 286 286 285 285 285 284 284 283 282 282 281 280 280 280 280 280 279 279 279 278 278 277 277 276 276 276 277 277 278 278 278 278 278 278 278 278 277 277 277 276 276 276 276
296 295 295 295 294 294 292 290 289 288 288 288 288 288 288 288 288 288 288 288 287 287 286 286 286 286 286 287 287 288 288 288 287 287 287 287 287 287 287 287 287 287 286 286 286 285 285 284 284 283 283 282 281 280 280 280 280 279 279 279 278 278 278 277 277 276 275 276 276 277 277 277 277 277 277 277 277 277 276 276 276 276 276 275 275
296 294 294 294 293 293 291 290 289 288 287 287 288 288 288 288 288 287 287 287 287 286 286 286 286 286 286 287 287 288 288 287 287 288 287 287 287 287 287 287 287 286 286 286 286 285 285 284 284 284 283 282 281 281 280 280 279 279 279 278 278 278 278 277 277 276 276 275 276 277 277 277 277 277 277 277 277 276 276 276 276 275 275 275 275
295 294 294 293 293 292 291 290 289 288 287 287 287 288 288 288 287 287 287 287 286 286 286 286 286 286 287 287 288 288 288 287 287 287 287 287 287 287 287 287 287 286 286 286 286 285 285 285 284 284 283 283 282 281 281 280 279 279 278 278 278 277 277 277 277 276 276 276 276 276 276 276 276 276 276 276 275 275 276 276 275 275 275 275 275
294 294 293 293 293 292 291 290 289 288 287 287 287 287 287 287 287 287 286 286 286 286 285 285 285 286 287 287 288 288 287 287 287 287 287 287 286 286 286 286 286 286 286 286 286 285 285 285 285 284 284 283 283 282 281 280 279 278 278 278 277 277 277 277 277 276 276 276 276 276 276 276 276 276 276 275 274 274 275 275 275 275 275 275 275
294 293 293 292 292 292 291 290 289 288 287 286 286 286 286 286 286 286 286 286 286 286 286 285 285 286 287 287 287 287 287 287 287 287 287 287 286 286 286 286 286 286 286 286 286 285 285 285 285 285 284 284 283 283 282 281 279 278 278 278 277 277 277 277 277 277 276 276 276 275 275 275 275 275 275 275 274 274 274 275 275 275 275 275 275
293 293 292 292 292 292 291 290 289 288 287 286 286 286 286 286 286 286 286 286 285 285 285 285 285 286 287 287 287 287 287 287 287 287 287 286 286 286 286 286 286 286 286 286 286 285 285 285 285 285 284 284 284 284 283 281 279 279 278 278 277 277 277 277 277 277 276 276 275 275 275 275 275 275 274 274 274 275 275 275 275 275 275 275 275
292 292 292 292 291 291 290 289 288 287 287 286 286 286 286 286 286 285 285 285 285 285 285 285 285 286 287 287 287 287 287 287 287 287 287 287 286 286 286 286 286 286 286 286 286 285 285 285 285 285 285 284 284 284 283 282 280 279 278 278 277 277 277 277 277 276 276 275 275 275 275 275 275 274 274 274 275 275 275 275 275 275 276 275 275
292 291 291 291 290 289 289 288 288 287 287 287 286 286 286 286 285 285 285 284 284 285 285 285 285 286 286 287 287 287 287 287 287 287 286 286 286 286 286 286 286 286 286 286 286 285 285 285 285 285 285 284 284 284 283 282 280 279 278 278 278 277 277 277 277 276 276 275 275 275 275 274 274 274 274 275 275 275 275 276 276 276 275 275 274
291 291 290 290 289 289 288 288 287 287 287 286 286 286 286 285 285 284 284 284 284 284 284 284 285 285 286 287 287 287 287 287 287 287 286 286 286 286 286 286 286 286 286 286 285 285 285 285 285 285 285 284 284 284 283 282 281 279 278 277 277 278 278 277 277 276 276 276 276 275 275 274 274 274 275 275 275 276 276 276 276 275 274 274 273
290 290 290 289 289 288 288 288 287 287 287 286 286 286 285 285 285 284 284 284 284 284 284 284 284 285 286 286 287 287 287 287 287 286 286 286 286 286 286 286 286 286 286 285 285 285 285 285 285 285 285 284 284 284 283 282 281 279 278 277 277 277 277 277 277 277 277 276 276 275 275 275 274 275 275 276 276 276 276 275 274 273 273 272 271
289 289 289 289 288 288 288 288 287 287 287 287 286 286 286 285 285 284 284 283 283 283 284 284 284 285 285 286 287 287 287 287 287 286 286 286 286 286 285 285 285 285 285 285 285 285 285 285 285 285 285 284 284 284 283 283 282 281 279 278 277 277 276 276 276 276 276 276 276 275 275 275 275 275 276 276 276 275 275 274 273 272 271 271 270
289 289 288 288 288 288 288 287 287 287 287 287 286 286 286 285 285 284 284 283 283 284 284 284 284 284 285 286 286 286 287 287 287 286 286 286 285 285 285 285 285 285 285 285 285 285 284 284 285 285 284 284 284 284 283 282 282 281 280 279 278 277 276 276 275 275 275 275 275 275 274 275 275 276 276 276 275 275 274 273 272 271 270 270 270
288 288 288 288 288 287 287 287 287 287 287 286 286 286 286 285 285 285 284 283 283 283 283 284 284 284 285 285 286 286 287 287 287 286 286 285 285 284 285 285 285 285 285 285 285 284 284 284 284 284 284 284 284 283 283 282 281 281 280 279 278 277 276 276 275 274 274 274 274 274 274 275 276 276 277 276 275 274 274 272 271 271 270 269 270
288 288 288 288 288 287 287 287 287 287 286 286 286 285 285 285 285 285 284 283 283 283 283 283 284 284 284 285 285 286 286 287 287 286 286 285 284 284 284 284 284 284 285 285 284 284 284 284 284 284 284 283 283 283 282 281 280 280 279 279 277 276 276 275 275 274 274 274 275 275 276 276 277 276 276 276 275 274 273 271 270 270 269 267 268
288 288 288 288 288 287 287 287 287 286 286 286 286 286 285 285 285 284 284 283 283 283 283 283 283 284 284 284 285 286 286 286 286 286 285 285 284 283 284 284 284 284 284 284 284 284 284 284 284 283 283 283 282 282 281 280 279 279 279 277 277 276 276 275 275 274 274 274 275 276 276 276 277 276 276 275 274 273 271 270 270 269 267 267 267
288 288 288 288 288 287 287 287 287 287 287 287 287 286 286 285 285 284 283 283 283 283 283 283 283 283 283 284 284 285 286 286 286 285 285 284 283 283 283 283 283 283 284 284 284 284 283 283 283 283 283 282 281 281 280 279 279 279 278 276 275 275 276 275 274 274 274 274 275 275 276 276 276 275 275 274 273 272 270 270 269 268 267 266 266
289 289 288 288 288 288 287 288 288 288 288 288 287 287 286 285 284 284 283 283 283 283 282 282 283 283 283 283 283 284 285 285 285 284 284 283 283 282 282 283 283 283 283 283 283 283 283 283 283 283 282 282 281 281 280 279 279 278 277 276 275 276 276 275 274 274 274 274 275 275 275 275 275 274 274 273 272 271 270 270 269 268 267 266 266
289 288 288 288 288 289 289 289 290 289 289 288 287 286 285 284 284 283 283 283 283 282 282 282 282 282 282 282 283 283 284 284 284 283 283 282 282 282 282 282 283 283 282 282 282 282 282 283 283 282 281 281 280 280 280 279 278 278 277 276 276 276 276 275 275 275 275 275 275 275 275 275 274 274 274 273 271 270 270 269 269 268 267 266 266
289 289 290 290 290 290 291 290 290 289 288 287 286 285 284 284 284 283 283 283 282 282 282 282 282 282 282 282 282 283 283 283 283 282 282 282 282 281 281 282 282 282 282 282 281 281 282 282 281 281 280 280 280 279 279 279 279 278 278 277 277 277 276 276 276 276 276 275 275 274 274 274 274 274 273 271 271 270 270 269 269 268 267 267 266
290 291 291 291 291 291 290 289 288 287 287 286 285 284 284 283 283 283 283 283 282 282 282 282 281 281 282 282 282 282 282 282 282 282 282 281 281 280 280 281 282 282 282 281 281 281 281 281 280 280 279 278 278 278 278 278 278 278 278 278 278 278 278 278 277 276 276 275 274 273 273 273 273 273 272 271 270 270 269 269 268 268 267 267 267
292 291 291 291 290 290 289 288 287 286 286 285 284 284 284 283 283 283 283 282 282 282 282 282 281 281 281 282 282 282 282 282 281 281 281 280 280 279 279 280 281 281 282 282 281 281 281 280 280 280 279 279 278 278 277 277 277 277 278 278 278 278 278 278 277 276 276 275 274 273 273 273 273 273 272 270 270 269 269 269 268 268 267 267 267
292 291 290 290 289 289 288 287 286 286 285 285 284 284 284 283 283 283 283 282 282 282 282 281 281 281 281 282 282 282 281 281 280 280 280 279 279 279 279 279 279 280 281 281 281 281 281 280 280 280 279 279 278 278 277 276 276 277 278 278 278 278 278 278 277 276 275 274 273 273 273 273 273 272 271 269 269 269 269 268 268 268 267 267 267
290 290 289 289 288 288 287 287 286 286 285 285 285 284 284 284 283 283 283 282 282 282 282 281 281 280 280 281 281 280 279 279 279 279 279 279 279 279 279 279 279 279 279 279 280 280 280 280 280 279 279 278 278 277 277 276 276 276 277 277 277 277 278 277 276 275 274 274 274 274 273 273 272 271 270 269 269 269 268 268 267 268 268 267 267
290 289 289 288 288 287 287 287 286 286 285 285 285 284 284 284 284 283 283 282 282 282 281 280 280 280 280 280 280 279 279 279 278 278 279 279 279 279 278 278 278 278 278 278 278 278 278 279 279 279 278 278 277 277 277 276 276 275 275 276 276 276 277 277 276 275 274 274 274 273 272 272 270 270 269 268 268 268 268 267 267 267 267 267 266
290 290 289 289 288 288 288 287 287 286 286 285 284 284 284 284 283 283 283 283 282 282 281 281 280 280 280 280 280 279 279 279 278 279 278 278 278 278 277 277 277 277 277 277 277 277 277 276 277 278 278 277 277 277 276 276 276 275 275 275 275 275 275 276 275 275 274 273 273 272 271 271 270 269 268 268 268 268 267 266 266 266 266 265 264
290 290 289 289 288 288 287 287 286 286 286 285 284 284 284 283 283 283 283 282 282 282 281 281 281 281 280 280 279 279 279 278 278 278 277 277 277 277 276 276 276 276 276 276 275 275 275 274 275 276 277 277 277 276 276 276 276 275 275 275 275 274 274 274 274 274 273 272 272 272 271 270 269 268 268 267 268 268 267 266 266 265 265 264 264
289 289 288 288 287 287 287 286 286 286 285 285 284 283 283 283 282 282 282 281 281 281 281 280 280 280 279 279 278 278 278 278 277 277 276 276 276 276 276 276 276 275 275 275 274 274 273 273 274 275 275 276 276 276 275 275 275 275 275 275 274 274 274 273 273 273 273 272 272 271 271 270 268 268 267 267 267 267 267 266 266 265 264 264 263
288 288 288 288 287 287 287 286 286 286 285 284 284 283 283 282 282 281 281 281 280 280 280 279 279 279 278 278 278 277 277 277 276 276 276 276 276 276 276 276 276 276 276 276 275 274 273 273 274 274 274 275 275 275 275 275 274 274 274 274 274 273 273 273 273 273 273 272 271 271 270 269 268 267 267 267 266 266 266 266 265 265 264 263 263
287 287 287 286 286 285 285 285 284 284 284 283 283 283 282 282 281 280 280 280 279 279 278 278 277 277 277 277 277 277 276 276 276 276 276 276 276 276 276 276 276 276 277 277 277 276 275 274 274 274 274 274 274 274 274 274 274 273 273 273 273 273 273 273 273 273 272 272 271 271 270 269 268 267 266 266 265 265 265 266 265 265 264 263 263
285 285 285 284 284 284 283 283 283 282 282 282 281 281 281 280 279 278 277 277 276 276 276 276 276 276 276 276 276 276 276 276 276 276 276 276 276 276 276 276 276 277 277 277 277 277 276 275 275 274 274 274 274 274 274 273 273 273 273 273 273 273 273 273 272 272 271 271 271 270 270 269 268 266 266 265 265 264 264 265 265 264 263 263 263
284 284 283 283 283 283 282 282 281 281 280 280 279 279 278 278 278 277 276 275 275 274 274 274 274 274 275 275 275 275 275 275 275 275 275 275 275 275 275 275 276 276 276 276 276 276 276 275 275 274 274 273 273 274 273 273 273 273 272 272 272 272 272 272 271 271 271 271 270 269 269 268 267 266 265 264 264 264 264 264 264 263 263 262 262
283 283 283 282 282 282 281 280 280 279 279 278 278 277 277 276 276 276 275 274 274 273 273 273 273 273 273 273 273 273 273 273 273 273 273 273 274 274 274 274 274 274 274 274 273 272 272 271 271 271 271 270 270 271 271 271 272 272 272 272 271 271 271 270 270 270 270 270 269 269 268 267 266 265 265 264 264 264 264 263 263 262 262 262 261
282 282 281 281 280 280 279 279 278 278 278 277 276 276 276 275 274 274 274 273 273 272 272 272 271 271 271 271 271 271 271 271 271 271 271 271 271 272 272 271 270 269 269 270 270 270 269 269 268 268 268 267 267 268 268 268 268 269 269 270 270 270 270 270 270 270 270 269 268 268 267 266 266 265 264 264 264 264 264 263 263 262 262 261 261
281 280 279 279 279 278 278 278 277 277 276 276 275 275 274 274 273 273 272 272 272 272 271 270 270 269 269 269 269 269 269 269 269 269 269 269 269 269 269 268 267 266 266 266 266 266 266 266 266 266 265 265 265 265 265 265 266 266 267 267 268 268 269 269 269 269 268 268 268 267 267 266 265 265 264 264 263 263 263 263 262 262 261 261 260
279 279 278 278 277 277 277 276 275 275 275 274 274 274 273 272 272 271 271 270 270 269 269 269 269 269 269 268 267 268 268 268 268 268 268 267 267 267 266 266 265 265 264 264 263 263 263 263 263 263 263 263 263 263 263 264 264 264 265 265 266 266 267 267 267 267 267 267 267 267 266 265 265 264 264 263 263 263 263 262 262 261 261 260 260
278 278 277 277 276 276 275 275 274 274 274 273 272 272 271 271 270 269 269 268 268 268 268 268 268 268 268 267 266 266 267 267 266 266 266 266 265 265 264 264 264 264 263 263 262 262 262 262 261 261 261 261 261 261 262 262 263 263 264 264 264 265 265 265 265 266 266 266 266 266 265 264 264 264 263 263 262 262 262 262 261 261 260 260 260
277 277 276 276 275 275 274 274 273 273 272 271 271 270 270 269 269 268 268 267 267 267 267 267 267 266 266 266 266 265 265 265 264 264 264 264 264 264 264 263 263 263 263 262 262 262 261 261 261 261 260 260 260 260 261 262 262 262 262 263 263 263 264 264 264 265 265 265 265 264 264 263 263 263 262 262 262 262 261 261 261 260 260 260 259
276 276 275 274 274 274 273 272 272 271 270 270 270 269 269 268 268 268 267 267 267 266 266 265 265 265 264 264 264 264 264 264 264 263 263 263 263 263 263 263 262 262 262 262 262 261 261 261 261 261 261 260 260 260 260 261 261 262 262 262 262 262 262 263 263 264 264 264 264 263 263 263 262 262 262 262 262 261 261 261 260 260 260 259 259
275 275 274 273 273 272 272 271 270 270 270 269 269 268 268 268 267 267 266 266 265 265 264 264 264 264 263 263 263 263 263 263 263 263 263 263 262 262 262 262 262 262 262 262 261 261 261 261 261 261 261 261 260 260 260 260 261 261 261 261 261 261 261 262 262 262 262 263 262 262 262 262 262 262 262 262 261 261 261 260 260 260 259 259 259
273 273 272 271 271 270 270 270 270 269 268 268 268 267 267 266 266 265 265 265 264 264 264 263 263 263 263 263 263 263 263 262 262 262 262 262 262 262 262 262 262 262 262 261 261 261 261 261 261 261 261 261 260 260 260 260 260 260 260 260 261 261 261 261 261 261 261 261 261 261 261 262 262 262 261 261 261 261 260 260 260 260 259 259 259
272 271 271 270 269 269 269 269 268 268 267 267 266 266 266 265 265 265 264 264 264 264 263 263 263 263 262 262 262 262 262 262 262 262 262 262 262 262 262 262 262 262 262 262 261 261 261 261 261 261 261 261 260 260 260 260 260 259 260 260 260 260 261 261 261 261 261 260 261 261 261 261 261 261 261 261 261 260 260 260 260 259 259 259 258
270 270 269 269 268 268 268 267 267 267 266 266 266 265 265 265 264 264 264 263 263 263 263 263 263 263 262 262 262 262 262 262 262 262 262 262 262 262 262 262 262 262 262 262 262 261 261 261 261 261 261 261 260 260 260 260 260 259 259 259 259 260 260 260 260 260 260 260 260 260 260 260 261 261 261 261 260 260 260 260 259 259 258 258 257
268 268 268 268 267 267 266 266 266 266 265 265 265 265 264 264 264 263 263 263 263 262 262 262 262 262 262 262 262 262 262 262 262 262 262 262 262 262 262 262 262 262 262 262 262 261 261 261 261 260 261 261 261 260 260 260 260 260 260 259 259 259 260 260 260 260 260 260 260 260 260 260 260 261 261 260 260 260 259 259 259 258 258 257 257
267 267 267 266 266 266 266 265 265 265 265 264 264 264 263 263 263 263 263 262 262 262 262 262 262 262 262 262 262 262 262 262 262 262 262 262 262 262 262 262 262 262 262 262 262 261 261 261 261 260 260 261 261 261 260 260 260 260 260 260 260 260 260 260 260 260 260 260 260 260 260 260 260 260 260 260 260 259 259 259 258 258 258 257 257
266 266 266 265 265 265 265 265 264 264 264 263 263 263 263 263 262 262 262 262 262 262 262 262 262 262 262 262 262 262 262 262 262 262 262 262 262 262 262 262 262 262 262 262 262 261 261 261 261 261 260 260 260 260 260 260 260 260 260 260 260 260 260 260 260 260 260 260 260 260 260 260 260 260 260 260 260 259 259 258 258 258 257 257 257
265 265 265 265 264 264 264 264 264 263 263 263 263 263 262 262 262 262 262 262 262 262 262 262 262 262 262 262 262 262 262 262 262 262 262 262 262 262 261 261 261 261 261 262 261 261 261 261 261 261 260 260 260 260 260 260 260 260 260 260 261 261 261 260 260 260 260 260 260 260 260 260 260 260 260 259 259 259 258 258 258 257 257 257 257
264 264 264 264 264 263 263 263 263 263 263 262 262 262 262 262 262 262 262 262 262 262 262 262 262 262 262 262 262 262 262 262 262 262 262 261 261 261 261 261 261 261 261 261 261 260 260 260 260 260 260 260 259 259 259 260 260 260 260 260 260 260 260 260 260 260 260 260 260 260 260 260 260 259 259 259 258 258 258 258 258 257 257 257 257
263 263 263 263 263 263 263 263 262 262 262 262 262 262 262 262 262 262 262 262 262 262 262 262 262 262 262 262 261 261 261 261 261 261 261 261 261 261 261 261 261 261 261 261 261 261 260 260 261 261 260 260 260 259 259 259 260 260 260 260 260 260 260 260 259 259 259 259 259 259 259 259 259 259 258 258 258 258 258 258 258 257 257 257 257
Wind_Speed
39 39 39 38 38 39 40 41 43 44 45 46 46 45 45 44 43 42 41 40 39 38 37 35 34 33 32 31 29 28 27 25 24 22 21 19 18 17 16 15 14 12 12 11 10 8 7 6 5 6 6 7 7 8 8 8 8 9 9 9 10 10 11 11 12 16 19 17 17 18 19 20 21 22 24 26 26 27 28 29 29 28 28 28 28
39 39 39 39 39 39 40 42 43 44 44 45 45 45 45 44 43 43 42 41 39 38 37 36 35 34 32 31 29 28 27 26 24 23 21 20 20 19 17 16 15 13 12 11 10 9 8 7 6 6 7 7 8 9 9 9 9 10 10 10 11 12 13 13 13 15 19 20 18 19 19 20 22 23 24 26 28 28 29 30 29 29 28 28 29
39 39 39 39 39 39 40 41 43 43 44 45 45 45 45 45 44 43 42 41 40 38 37 36 35 34 32 31 30 29 27 26 25 23 22 21 21 19 18 17 16 14 13 12 11 10 9 8 7 7 7 8 9 10 10 10 11 11 11 12 13 13 14 15 14 14 18 21 19 18 20 22 24 24 24 26 27 29 31 31 30 29 28 29 30
39 39 39 38 38 38 40 41 43 44 44 45 45 45 45 45 44 43 42 41 40 39 37 36 35 34 33 32 31 29 28 27 25 24 23 22 20 20 19 18 16 14 13 12 12 11 10 9 8 8 8 8 9 10 11 11 11 12 12 13 14 15 14 15 16 15 17 20 21 21 22 23 24 24 24 26 27 29 30 30 30 30 28 29 31
38 38 38 38 38 39 40 41 43 44 44 45 45 46 46 45 45 44 43 42 41 39 38 37 36 34 33 32 31 30 29 28 26 25 24 22 21 20 20 18 17 15 14 13 12 12 10 9 9 8 8 9 10 11 11 11 12 13 14 15 15 15 15 15 16 16 17 21 25 26 24 23 24 24 23 25 29 31 31 30 29 28 28 30 30
38 38 38 38 39 40 41 42 43 44 44 45 45 46 46 45 45 44 43 42 41 40 39 38 36 35 34 33 32 31 30 28 27 26 25 24 23 22 20 18 17 16 15 14 13 12 11 10 9 9 9 10 10 11 11 12 13 14 15 16 16 15 16 17 16 17 18 21 23 25 25 24 24 23 22 23 26 29 32 33 29 25 26 29 30
39 39 39 39 40 41 42 42 43 44 44 44 44 44 44 44 44 44 43 43 42 41 40 38 37 35 34 33 33 31 30 29 28 27 26 26 25 24 22 19 18 17 16 15 14 14 12 11 11 10 10 10 10 10 12 13 14 15 16 16 16 16 17 18 17 17 19 21 22 23 24 23 22 22 22 22 22 22 24 29 32 30 28 26 28
39 39 39 39 40 41 41 41 42 42 42 42 42 43 43 43 43 43 43 43 43 42 40 39 37 36 35 34 33 32 31 31 30 29 28 27 27 25 23 21 20 19 18 17 16 15 14 13 12 12 12 12 11 11 12 14 15 16 16 16 16 17 17 18 18 18 19 21 22 23 23 23 22 21 21 21 22 20 18 21 27 30 30 28 26
39 39 39 41 41 41 40 40 41 41 41 41 41 42 43 43 43 43 44 44 43 42 40 39 38 37 36 35 34 33 32 32 32 31 30 29 28 26 24 23 21 20 19 18 17 17 16 14 14 13 14 13 12 13 14 15 16 17 17 17 17 17 18 18 19 19 19 20 23 22 21 22 21 20 21 20 19 20 21 21 21 22 24 28 27
39 40 40 41 40 38 38 39 39 40 41 41 42 42 43 43 43 44 44 43 43 41 40 39 38 38 37 36 35 35 34 34 33 32 31 30 29 27 25 24 23 21 21 20 19 18 17 16 15 15 16 15 14 15 15 16 18 18 17 17 18 18 19 19 20 20 20 21 22 20 20 22 20 19 20 20 19 20 21 19 19 20 20 23 28
40 40 40 38 37 36 37 37 37 39 41 41 41 41 42 42 43 43 43 42 42 41 40 40 39 39 38 37 36 36 36 35 34 32 32 31 29 28 27 25 24 23 23 21 21 20 19 18 17 17 18 17 17 17 17 18 19 19 18 18 18 19 20 21 21 20 20 21 22 19 19 22 23 19 19 19 20 20 18 16 17 19 18 18 24
39 38 37 36 35 35 36 36 37 38 39 40 40 40 40 41 41 42 42 42 42 41 40 40 40 39 38 37 37 37 37 36 35 33 33 32 31 29 28 27 26 25 24 23 22 21 21 20 19 20 20 19 19 19 20 20 20 20 20 19 19 19 19 20 21 21 20 21 21 20 20 22 23 20 17 19 20 18 16 15 13 14 16 16 20
36 35 34 34 34 34 35 36 36 37 37 37 37 37 38 39 40 41 42 41 40 40 40 40 39 39 39 38 38 38 38 37 35 34 34 33 32 31 29 29 28 26 25 25 24 23 23 22 22 22 22 21 21 22 22 22 22 21 22 21 21 21 21 20 20 20 20 20 20 21 21 20 21 19 16 18 20 17 14 14 15 16 18 20 23
33 32 32 32 33 33 33 34 35 35 35 35 36 36 37 38 39 39 39 38 39 39 39 39 39 39 39 38 39 39 39 38 36 36 35 34 33 32 31 30 30 29 27 26 26 26 25 24 24 24 24 23 23 24 24 24 23 24 24 24 24 25 25 25 24 22 21 20 22 23 22 19 19 17 16 18 18 16 15 18 21 21 24 26 29
29 29 30 30 31 31 32 33 33 33 33 34 35 35 36 37 37 37 37 38 39 40 40 40 40 39 39 39 39 40 40 39 38 37 36 35 35 34 33 32 32 31 30 29 29 28 27 26 26 27 26 26 26 26 26 25 25 26 26 26 26 26 27 28 27 25 24 23 23 23 21 17 16 17 18 19 17 17 19 23 25 25 27 30 31
27 28 28 29 29 30 31 31 31 32 33 33 34 35 35 36 36 36 37 38 39 39 40 40 40 40 40 39 40 41 41 39 39 39 37 36 35 35 35 35 34 33 33 32 32 31 29 29 29 29 29 28 28 27 26 26 26 27 28 28 28 28 28 27 25 23 23 23 22 21 20 18 17 18 18 16 17 22 26 27 27 26 25 26 30
28 28 28 28 29 30 30 31 31 31 31 32 33 34 34 34 35 35 37 38 39 40 41 41 41 40 40 41 41 42 41 40 40 40 38 37 36 35 36 36 35 36 36 35 34 33 32 32 31 31 31 31 30 28 26 26 28 29 29 29 29 30 30 27 24 22 22 21 20 20 21 20 17 17 18 18 23 28 29 27 25 22 18 18 21
29 29 29 29 30 30 30 30 30 30 30 31 32 33 33 34 35 36 38 39 40 41 41 40 39 39 40 41 42 42 41 40 40 40 39 38 37 37 37 37 37 38 38 37 37 36 35 35 34 33 34 33 32 29 26 27 29 30 30 29 30 32 32 27 24 23 21 19 19 20 22 22 21 21 22 25 28 28 25 23 21 18 15 14 15
29 29 29 28 28 28 28 28 28 29 30 31 32 33 33 34 35 36 37 38 38 38 38 37 38 39 40 40 40 40 41 41 40 40 39 38 37 37 38 38 38 40 39 39 39 38 38 37 36 36 36 35 33 30 28 28 30 31 30 29 30 33 32 27 23 22 20 18 18 21 23 23 23 24 25 27 27 25 22 20 18 16 15 15 16
28 28 27 26 26 26 26 26 27 28 29 31 32 32 33 34 35 35 36 36 36 35 35 36 37 38 38 38 38 40 41 41 40 39 38 37 37 37 38 39 40 41 41 40 40 40 40 39 39 38 37 36 34 32 30 30 30 31 30 30 33 34 30 24 22 21 20 19 20 22 24 24 23 23 25 26 25 21 20 19 17 15 14 16 18
26 26 25 24 24 24 24 24 26 27 29 30 31 32 33 34 34 34 34 34 34 34 34 34 35 36 36 36 37 39 40 40 40 39 37 36 36 36 38 41 42 41 40 40 41 41 41 41 41 39 37 35 33 31 31 29 27 28 30 31 33 31 25 22 21 20 20 22 23 24 24 23 22 23 25 26 22 19 19 19 17 15 14 15 18
24 23 22 20 20 21 22 23 25 26 28 29 30 31 31 32 32 32 31 32 32 33 33 33 33 34 35 35 37 38 39 39 39 38 37 36 37 36 37 40 40 39 38 40 41 42 42 42 41 39 36 34 32 31 31 28 25 26 29 29 28 24 21 23 24 23 24 25 24 24 23 21 22 24 24 23 20 19 19 18 16 15 15 15 16
18 17 17 17 18 19 21 22 24 25 27 28 29 29 29 29 29 29 29 30 30 31 32 31 32 33 34 35 37 38 38 38 37 37 36 36 36 36 35 35 35 34 37 41 42 42 42 41 40 38 36 34 32 30 30 28 27 28 28 27 26 24 23 27 28 25 25 25 24 23 22 21 22 24 24 22 20 19 19 19 17 16 16 16 17
13 13 15 16 17 19 20 21 23 24 26 26 27 27 27 27 27 27 28 28 28 29 30 30 30 32 33 35 37 37 36 36 35 35 35 35 35 35 35 34 32 30 32 38 40 40 40 40 39 37 36 35 33 31 30 29 28 28 27 26 25 24 26 30 29 26 26 26 24 23 23 21 23 25 25 22 20 20 20 19 17 16 16 17 17
12 13 14 15 17 18 19 20 21 22 23 24 25 26 26 25 25 26 26 27 27 28 28 28 29 30 32 34 35 33 31 31 31 30 30 30 31 31 32 34 34 31 31 35 38 37 38 38 38 37 36 34 32 30 29 28 27 26 25 25 25 26 28 30 29 27 27 26 24 24 24 23 24 25 24 21 20 20 20 20 18 17 17 18 18
12 13 14 15 16 17 17 18 19 20 21 22 23 23 24 24 25 25 26 26 27 28 27 27 27 29 30 32 32 28 26 25 25 25 24 24 26 26 27 29 30 31 34 37 39 38 37 35 34 34 33 32 31 29 29 29 28 26 25 24 25 27 29 30 29 29 28 27 26 26 25 23 23 23 21 21 21 20 20 19 19 18 17 18 19
13 13 14 15 15 16 17 18 18 19 20 20 21 22 22 23 23 24 25 25 26 26 26 26 26 26 28 29 28 25 24 24 23 23 23 23 23 23 23 23 24 26 29 33 35 37 37 36 33 32 30 29 28 28 28 28 26 25 25 24 25 28 30 30 30 30 29 27 26 25 23 22 22 21 21 21 21 20 18 18 18 18 17 17 19
13 13 14 14 15 15 15 16 16 17 18 18 19 20 21 21 22 23 23 24 24 24 25 25 25 25 26 26 25 24 24 23 22 22 22 21 21 21 20 20 20 21 24 26 27 30 32 33 31 30 28 26 26 26 26 26 25 26 27 27 28 29 30 30 29 29 29 27 25 24 23 21 21 21 21 21 21 19 18 17 17 16 15 14 17
12 12 13 13 13 14 14 14 14 14 15 15 16 17 17 18 19 20 20 20 21 21 21 22 23 22 22 22 21 22 23 21 19 19 18 18 18 18 18 17 17 17 18 19 21 25 27 27 27 27 26 25 25 25 25 25 26 28 29 29 29 30 32 32 32 32 30 27 25 24 23 21 21 21 20 21 21 19 17 16 16 15 14 14 17
12 12 13 12 12 12 11 11 11 10 10 11 13 13 13 14 15 16 17 17 17 17 17 18 18 17 18 17 17 18 18 17 14 13 13 13 14 15 16 16 16 16 15 15 17 20 22 22 23 24 23 23 24 24 24 23 25 27 28 29 29 30 32 33 33 33 30 27 25 24 23 22 22 21 21 21 20 18 16 16 15 15 14 15 17
10 10 9 8 8 8 7 7 7 7 8 8 9 10 10 10 11 12 13 14 14 14 14 14 13 13 13 13 12 12 13 12 11 10 10 11 12 13 14 14 15 15 15 15 18 20 20 20 22 22 21 23 25 25 25 24 25 26 26 27 29 30 31 32 33 32 31 29 27 25 24 23 23 22 21 21 20 18 17 16 15 15 15 15 17
7 7 7 6 5 5 5 5 5 5 6 7 7 9 10 10 9 9 9 9 9 9 8 7 7 7 7 8 9 9 9 9 9 9 10 11 11 12 13 13 14 14 14 15 19 22 21 21 23 22 21 22 24 25 26 26 27 26 25 26 28 30 32 33 34 34 32 31 28 26 24 23 23 22 21 19 18 17 16 15 16 16 16 17 18
7 7 6 6 5 5 4 4 4 4 5 5 6 7 7 8 8 8 7 5 5 5 5 4 4 3 2 2 3 4 3 3 3 4 5 6 7 8 10 11 11 12 12 15 19 21 21 22 24 25 24 26 27 28 28 28 28 28 28 28 29 31 32 33 32 31 31 30 28 26 24 23 22 22 20 18 17 16 15 15 16 16 17 18 19
7 7 6 5 4 4 3 3 4 4 4 4 4 4 5 5 6 6 6 5 5 5 6 5 5 5 5 5 5 5 5 5 6 6 6 6 7 7 7 8 8 9 10 11 13 14 14 15 16 17 18 20 21 23 25 26 27 28 28 29 30 31 30 29 28 28 28 28 27 25 23 21 21 21 19 17 15 15 14 15 16 16 17 18 20
5 5 5 4 4 4 4 4 3 3 3 3 3 3 4 4 4 5 6 6 6 7 7 6 5 6 7 8 8 8 8 8 9 9 10 11 13 13 12 12 11 10 11 12 12 13 14 14 15 16 16 16 16 16 17 19 21 22 24 26 27 28 28 27 27 27 27 27 26 23 21 20 20 19 18 16 14 14 15 15 15 16 16 18 20
5 6 6 5 5 5 5 4 4 4 4 4 4 3 4 4 4 4 5 5 6 7 7 7 7 6 7 8 9 9 9 8 9 9 10 12 14 15 13 12 12 12 12 13 14 16 17 18 19 19 18 18 18 17 17 18 18 19 20 22 24 26 26 26 26 27 27 26 24 21 20 20 20 18 17 16 15 14 14 15 15 16 17 17 18
7 7 7 6 6 6 5 5 5 5 5 5 5 5 4 4 4 5 5 6 6 7 7 6 6 6 6 5 5 6 7 7 8 9 9 10 12 12 10 9 10 11 11 12 13 15 17 18 19 19 19 19 20 20 20 20 20 19 20 20 21 23 25 25 26 27 26 24 21 20 20 20 20 18 16 16 15 14 14 15 15 16 17 17 17
8 7 7 7 6 6 6 6 6 6 6 6 6 6 6 6 6 6 6 6 6 6 6 5 4 4 4 4 4 4 5 6 7 8 8 9 9 9 8 9 9 10 11 12 12 13 15 16 17 18 19 20 21 21 21 21 21 21 20 20 20 21 22 23 23 22 21 20 19 19 20 20 19 17 16 15 14 13 14 15 15 15 17 17 17
9 8 8 7 7 7 7 7 7 7 7 7 7 7 7 7 7 7 7 6 5 4 4 4 3 3 3 3 5 7 8 7 8 8 8 8 8 8 8 9 10 10 11 12 13 14 15 16 16 17 18 19 20 20 20 20 20 19 20 20 20 19 19 19 19 18 17 17 18 19 19 19 17 15 14 14 13 13 14 14 15 15 16 17 17
9 9 9 8 8 8 8 8 8 8 8 8 8 8 8 7 7 6 6 5 5 4 3 3 3 3 3 2 5 8 9 8 8 9 9 8 8 8 9 9 10 11 12 13 13 14 16 17 18 19 19 20 19 19 19 19 18 17 17 18 18 18 17 17 17 16 16 17 18 19 19 18 15 14 13 13 13 13 13 14 15 15 15 16 17
10 11 11 10 10 10 10 10 10 9 9 9 8 8 7 7 6 6 5 5 5 4 4 4 3 3 2 1 4 6 8 8 7 8 8 8 8 8 8 9 10 11 12 13 13 14 15 17 18 19 20 20 20 18 17 17 16 15 15 15 16 17 17 17 17 18 18 19 19 19 18 16 14 13 13 13 12 13 13 14 15 15 15 16 18
11 12 12 12 11 11 11 11 10 10 9 9 8 7 7 6 6 6 5 5 5 4 4 4 4 3 3 2 2 5 7 7 6 6 6 7 7 7 8 8 10 11 12 13 14 15 16 17 18 19 19 20 19 18 17 16 16 15 15 15 16 17 17 17 17 18 18 19 18 17 16 14 13 13 13 12 13 13 14 14 15 15 16 17 18
12 12 12 12 12 11 11 11 10 9 9 8 8 7 6 6 6 5 5 5 5 5 5 5 4 4 4 5 5 6 6 6 6 7 7 7 7 8 8 9 10 11 12 13 13 14 16 17 18 18 18 18 18 18 17 17 17 17 17 18 18 18 18 17 17 17 18 17 16 14 13 12 12 13 13 13 13 14 14 15 15 16 16 17 17
12 12 12 12 12 11 10 10 9 9 8 8 7 7 6 6 5 5 5 5 5 5 5 5 5 5 5 6 6 6 7 7 7 8 8 8 9 9 10 10 11 12 13 13 14 14 16 17 18 18 18 17 16 16 16 16 16 17 18 18 18 18 18 16 15 14 15 14 13 12 12 12 12 13 14 14 14 14 15 15 15 16 16 16 16
11 11 12 12 11 11 10 9 9 8 8 7 7 7 6 6 6 6 6 6 5 5 5 6 6 6 6 7 7 7 8 8 9 9 10 10 10 11 11 12 13 14 14 14 14 15 16 17 18 18 18 18 17 16 16 15 14 15 15 16 17 17 16 15 13 13 13 13 13 13 12 13 14 14 15 15 15 15 15 16 15 15 16 16 16
10 10 10 10 10 10 9 9 8 8 7 7 7 7 6 6 6 6 6 6 6 6 6 7 7 7 8 8 8 8 9 10 10 11 11 11 12 12 13 13 14 15 15 15 15 15 16 17 18 18 19 19 18 17 17 15 14 13 14 14 15 15 15 14 13 13 13 13 14 14 14 15 15 16 16 16 16 16 16 16 15 15 16 16 17
9 9 8 9 9 8 8 8 8 7 7 7 7 7 6 6 6 6 6 7 7 7 7 8 8 8 9 10 10 11 11 12 12 13 13 13 13 13 14 14 15 15 16 16 16 16 17 17 17 18 19 19 19 19 18 16 15 14 14 14 14 15 14 13 13 14 14 14 15 16 16 17 17 17 17 17 17 16 16 16 16 16 16 16 17
8 8 7 7 7 7 7 7 7 6 6 6 6 6 6 6 7 7 7 7 8 8 8 9 9 10 11 11 12 12 13 14 14 15 15 15 15 15 15 16 16 17 17 17 17 17 17 18 18 19 19 19 19 19 18 17 16 15 15 15 15 15 15 14 15 15 15 16 17 17 17 18 18 18 18 17 17 17 16 16 16 15 15 15 16
6 6 6 6 6 6 6 6 6 6 6 6 6 7 7 7 8 8 8 8 9 9 10 10 11 11 12 13 13 14 14 15 16 16 16 16 16 16 16 17 17 18 18 18 18 18 18 18 19 20 20 20 20 20 19 18 18 17 16 16 15 15 16 16 16 16 16 17 17 17 18 18 18 18 18 17 17 16 16 16 15 14 14 15 16
6 6 5 6 6 6 6 6 6 6 7 7 7 8 8 9 9 9 9 10 11 11 11 12 13 13 14 15 15 16 16 17 17 17 17 17 17 17 17 18 19 19 19 19 19 18 18 19 20 21 21 21 20 20 19 19 19 18 18 17 17 16 16 16 16 16 16 16 17 17 17 18 18 18 18 17 16 16 16 15 14 14 14 15 16
5 5 5 5 5 5 5 6 6 7 7 7 8 8 9 10 10 10 11 12 12 13 13 14 15 15 16 17 17 18 18 18 19 19 18 18 17 17 18 19 19 19 19 19 19 18 18 18 19 20 20 20 20 19 19 19 19 19 19 18 18 17 17 16 15 15 15 14 15 15 15 15 16 16 16 15 15 14 14 14 13 14 16 16 17
Wind_Direction
201 201 202 202 202 202 201 199 196 192 190 189 189 188 187 186 186 185 184 184 184 183 183 183 182 182 182 182 181 180 180 179 180 179 177 175 174 172 171 170 173 175 173 173 176 177 183 184 195 216 228 240 248 252 256 258 263 263 261 263 260 255 255 247 247 268 279 280 283 291 298 303 310 317 321 323 327 331 333 336 338 337 338 339 339
200 201 201 201 203 203 201 199 196 193 192 191 191 191 190 189 189 188 187 186 186 186 186 185 185 185 184 184 184 184 184 183 182 181 180 179 177 176 178 176 175 178 178 179 181 184 190 193 200 218 229 240 248 254 259 261 264 267 264 262 260 255 255 256 258 270 282 286 289 295 298 302 309 316 321 324 328 331 333 336 338 338 339 340 340
201 201 201 201 202 202 201 199 197 195 194 194 193 193 192 191 191 191 190 189 189 189 189 188 187 187 187 187 187 187 187 187 185 184 184 184 183 182 183 182 181 182 182 185 188 191 196 199 206 219 229 240 249 254 259 262 265 268 267 262 259 257 255 260 264 269 282 291 294 296 299 305 310 316 322 327 330 331 332 336 338 339 340 340 339
201 201 202 201 201 202 202 200 199 198 197 197 196 195 194 194 193 193 192 191 191 191 191 191 190 190 190 190 191 190 190 190 188 188 188 189 189 189 188 186 185 185 187 190 194 198 201 204 212 221 230 240 250 255 257 262 266 267 267 263 260 260 259 261 264 269 280 288 291 294 300 307 312 319 325 328 329 331 333 336 337 337 339 338 336
202 202 202 201 201 202 202 202 201 200 200 199 198 197 197 196 195 195 194 194 193 192 193 193 192 193 193 194 194 194 194 193 192 191 191 191 193 194 194 191 189 189 192 197 201 204 207 212 218 223 232 241 250 257 260 263 266 265 264 262 259 261 263 264 267 270 276 282 289 296 302 308 314 319 327 330 330 331 333 335 336 337 336 334 331
203 203 202 202 202 202 203 204 203 202 202 202 201 200 199 198 197 196 196 196 195 195 195 195 195 196 197 197 198 197 196 196 196 195 194 193 195 198 198 197 195 195 198 203 208 211 213 218 226 231 237 244 252 259 264 266 265 264 262 260 259 261 263 265 268 273 276 281 288 295 300 307 313 318 324 331 332 332 334 334 334 333 332 329 328
203 203 203 203 203 204 205 205 205 204 204 204 203 202 201 200 199 198 198 198 198 197 197 197 198 199 200 200 201 200 199 198 199 198 197 196 197 200 201 200 200 201 204 209 213 217 220 223 232 240 244 250 256 261 267 268 265 263 262 259 258 260 263 266 268 271 276 281 285 290 297 303 309 312 319 328 331 333 338 334 328 327 328 327 326
202 202 203 203 205 206 206 206 206 206 205 205 204 204 203 203 202 201 201 201 201 201 200 200 200 201 202 203 203 203 202 201 201 201 200 199 201 203 204 204 205 207 209 214 218 222 226 229 235 244 249 255 261 266 269 269 264 262 261 258 257 259 261 264 267 269 273 278 282 287 293 297 301 308 316 324 327 330 337 329 319 320 324 322 321
201 201 202 204 206 206 205 206 206 206 205 205 205 205 205 204 204 203 203 203 204 204 203 202 202 202 204 205 205 205 205 205 205 204 203 203 204 206 208 209 211 213 215 218 223 227 231 234 239 246 252 257 264 269 271 269 265 262 260 257 256 259 261 263 263 267 270 274 278 284 289 291 296 306 312 319 323 323 326 322 312 313 317 314 313
200 201 203 205 205 205 204 205 204 205 205 206 207 206 206 205 205 205 206 206 205 205 205 204 205 206 206 206 207 207 208 209 209 208 207 207 209 210 211 213 215 217 220 222 227 231 234 238 241 247 253 258 263 268 270 269 268 266 263 260 258 258 260 260 261 263 266 269 274 280 284 285 291 301 307 313 319 317 318 318 312 313 316 313 312
200 201 203 203 203 202 203 203 203 204 205 206 207 207 206 206 206 207 208 207 207 207 206 206 207 209 210 209 209 210 211 212 212 210 210 212 214 215 216 217 218 221 224 227 230 235 239 241 244 248 254 258 262 265 267 267 266 265 263 262 263 263 260 260 261 261 262 266 271 273 274 279 289 300 305 311 315 313 311 311 309 312 318 316 312
199 201 202 201 200 201 201 202 202 204 205 206 207 207 207 208 208 209 209 209 209 208 208 209 210 211 212 213 213 214 215 215 214 213 213 215 217 220 221 223 224 226 228 231 235 238 241 243 246 251 255 258 261 262 264 265 263 262 260 258 258 259 259 260 262 262 262 263 266 267 268 276 287 296 304 310 311 306 303 305 308 311 314 310 301
198 199 199 198 199 200 201 201 202 204 205 206 207 208 209 210 211 212 212 211 210 209 210 211 212 213 215 216 217 218 219 218 216 216 216 218 220 223 225 227 230 232 234 236 238 240 242 245 248 253 256 257 259 260 262 263 263 262 261 258 255 252 251 253 256 260 264 264 263 264 268 275 283 292 304 308 303 300 301 305 309 308 305 300 294
196 197 196 197 198 199 200 202 203 204 206 207 208 209 211 213 214 214 214 213 212 212 212 213 215 216 218 219 221 222 222 221 220 219 219 221 223 226 228 230 233 236 238 240 242 243 245 247 251 256 258 257 258 260 261 262 264 265 264 262 260 257 253 252 251 251 253 255 259 265 269 273 280 290 301 298 291 292 300 305 307 304 299 297 296
194 194 194 196 198 199 201 202 203 204 206 208 210 212 213 215 216 216 216 216 215 216 216 216 218 219 221 223 224 226 226 225 224 223 222 223 226 229 231 233 235 239 241 243 245 246 247 250 254 257 258 258 258 260 261 263 265 266 267 266 265 263 260 260 259 254 249 248 253 260 264 270 279 288 292 289 284 287 296 300 301 299 299 300 299
191 193 194 196 198 200 201 202 203 205 207 209 211 213 214 216 217 218 218 218 218 218 219 220 221 222 224 226 227 229 230 229 227 227 226 225 228 232 235 236 238 241 243 245 247 248 249 251 255 258 259 259 259 259 260 263 264 265 267 268 267 266 265 264 262 258 253 252 253 257 264 275 283 281 277 275 280 291 297 298 296 298 301 302 302
193 194 195 197 200 202 203 204 205 206 207 209 212 214 217 218 220 220 220 219 219 220 221 222 223 224 226 228 229 232 233 232 232 231 229 228 229 232 236 239 241 243 246 248 249 251 252 254 256 259 260 260 259 259 259 261 264 265 267 268 268 268 267 265 263 258 254 254 255 259 265 269 265 257 256 266 281 291 294 293 294 299 301 300 301
195 195 197 200 202 204 205 206 206 207 210 213 216 219 220 222 223 223 222 221 221 222 223 224 226 228 229 231 233 235 236 237 236 235 233 230 230 233 237 241 243 246 248 249 251 252 254 256 257 259 261 261 261 260 258 259 261 264 266 267 267 268 268 267 265 261 258 256 253 253 255 253 250 252 262 275 283 287 288 287 291 295 289 285 288
196 197 199 201 203 205 206 208 210 212 216 220 222 223 224 224 225 224 224 224 225 225 225 226 228 230 232 234 236 238 240 241 239 238 237 234 232 235 238 241 244 247 250 252 253 254 255 257 259 260 261 262 261 260 259 259 260 262 264 263 263 265 267 268 265 262 261 258 249 246 247 249 253 260 269 279 285 285 283 283 284 283 278 277 281
198 198 200 201 203 206 209 212 215 219 223 226 227 227 227 226 225 225 226 227 228 229 229 230 232 234 236 237 239 240 243 244 243 242 240 237 236 236 239 241 244 248 251 253 255 257 258 260 261 261 261 262 263 264 262 259 259 261 261 258 258 263 268 269 265 262 262 258 249 246 246 249 254 263 274 284 287 283 280 280 278 275 270 272 277
198 198 200 202 205 210 215 220 225 228 230 231 230 229 228 227 227 227 228 228 229 230 232 234 237 239 240 241 243 244 246 248 248 247 245 242 240 238 240 244 247 249 252 254 257 259 261 264 265 265 264 264 264 265 263 260 257 257 258 259 261 265 267 267 266 260 255 253 250 246 245 247 257 270 282 288 285 279 277 276 273 270 265 267 275
197 197 200 204 211 218 225 229 230 231 231 230 228 228 228 228 229 230 230 230 231 232 235 237 240 243 244 245 247 249 250 251 252 252 250 248 245 241 241 246 250 251 253 256 259 261 264 266 268 269 270 269 268 266 263 258 252 250 254 258 260 259 257 259 260 254 247 246 243 241 244 253 267 280 288 288 282 277 277 274 271 268 264 265 271
193 196 201 209 217 224 228 230 230 230 229 228 227 228 228 228 229 230 231 231 232 234 236 238 241 245 247 248 250 252 253 254 255 255 255 253 249 245 243 246 252 256 257 260 262 265 268 270 272 273 274 274 273 270 266 260 253 250 251 253 253 252 252 254 253 248 244 241 238 240 249 261 274 286 292 287 279 276 276 276 274 271 268 269 270
191 198 206 213 220 225 227 229 229 229 228 227 226 227 228 228 228 230 231 231 232 235 238 239 241 244 248 251 253 255 256 257 257 257 257 256 253 250 246 245 249 255 262 266 268 270 272 273 275 277 278 277 276 274 271 266 258 253 251 251 251 250 250 250 249 245 241 238 237 246 257 267 279 290 291 284 276 275 276 277 278 277 275 275 275
193 200 207 213 218 221 223 225 227 227 227 228 226 226 227 227 227 229 230 231 232 235 238 239 241 244 248 252 256 258 259 261 263 262 262 262 261 259 256 253 251 252 257 264 268 272 275 277 278 278 277 277 276 273 269 264 257 252 250 251 250 249 248 249 248 242 237 237 243 253 262 272 283 289 285 278 273 274 276 278 280 278 277 278 279
188 195 202 208 212 215 218 219 222 224 225 227 228 229 230 229 229 229 230 230 233 236 239 240 242 245 249 253 257 260 263 266 269 270 271 271 270 270 269 267 263 260 258 260 262 266 270 274 277 277 274 272 270 266 264 264 260 254 249 248 248 248 249 249 245 239 238 243 252 260 269 278 285 283 277 273 272 273 276 280 281 279 278 284 289
181 187 194 200 204 208 212 213 216 218 221 224 226 228 230 231 230 231 232 232 234 236 238 240 242 245 250 255 260 264 268 270 273 277 280 281 282 281 278 275 272 268 265 264 264 265 265 267 269 271 271 268 265 263 264 264 261 253 247 244 245 247 250 251 247 243 246 253 259 267 275 281 282 278 273 271 271 273 276 280 282 282 284 292 297
176 181 186 192 197 201 206 210 212 214 217 220 223 225 228 231 233 236 238 239 240 241 242 244 247 251 256 261 266 270 272 275 279 285 287 288 288 286 282 278 275 272 269 270 271 271 268 266 265 265 265 262 258 256 256 255 253 251 248 247 246 246 248 250 248 248 252 257 263 270 277 280 279 275 271 270 270 273 276 278 280 285 291 297 297
173 177 181 187 191 195 201 206 210 214 217 218 221 227 232 236 239 243 246 248 248 250 252 255 258 261 264 267 271 275 278 284 289 292 294 293 292 290 288 286 285 281 279 279 279 276 272 267 263 260 258 255 253 252 251 249 248 248 248 248 248 245 244 245 247 250 254 258 263 270 276 278 276 272 268 268 270 271 273 276 280 288 296 297 292
169 174 179 183 187 192 198 204 209 216 221 222 224 229 234 239 242 243 246 249 252 254 256 260 265 268 269 271 274 277 284 293 299 297 294 292 289 287 285 286 287 287 287 288 282 275 270 267 262 258 256 255 255 255 255 254 253 253 252 251 249 247 244 244 246 250 254 258 263 269 273 274 271 267 265 266 268 268 269 273 280 288 293 294 292
162 165 172 178 184 191 198 206 211 215 219 222 224 227 231 236 241 244 246 249 252 254 257 261 265 269 273 278 281 285 291 297 297 291 286 284 283 280 278 279 279 279 281 279 273 267 264 264 264 261 258 257 258 259 260 261 260 259 257 255 254 251 248 247 249 252 255 258 262 266 268 269 267 264 262 262 265 267 267 270 278 286 292 294 293
151 153 161 168 173 180 186 193 200 205 210 215 218 222 226 227 231 240 246 246 248 253 257 261 266 272 278 284 291 299 307 306 297 290 289 288 287 286 283 280 277 276 275 270 266 263 260 259 263 264 262 260 261 262 262 261 260 259 257 255 256 256 255 256 257 257 257 258 260 261 263 265 264 262 259 260 263 266 267 270 277 286 294 297 295
145 145 150 154 156 162 172 179 189 198 205 212 214 218 223 224 222 226 233 236 236 236 231 229 232 225 224 255 271 279 294 303 294 295 299 295 292 292 289 285 281 279 277 272 268 266 262 258 260 262 261 261 262 262 261 260 260 259 256 254 255 257 259 261 260 257 256 257 257 257 259 262 260 257 256 257 260 264 270 273 279 287 294 297 297
134 134 137 143 151 159 169 178 188 194 196 203 211 212 216 221 218 214 215 209 199 203 210 216 216 205 195 198 214 230 239 246 251 259 269 277 281 282 283 281 276 273 276 282 285 286 285 281 278 277 277 275 274 272 269 266 263 260 257 256 256 258 259 260 258 256 256 257 255 255 257 258 254 252 253 256 259 265 270 274 280 288 293 295 296
126 129 133 143 152 158 163 168 174 180 183 188 201 205 207 212 209 205 207 204 197 198 203 210 219 224 223 224 232 243 254 259 261 264 268 272 275 276 280 288 290 285 283 291 300 307 312 316 316 315 316 316 311 306 300 292 284 276 268 263 261 260 260 260 260 260 260 257 253 253 256 254 251 251 253 256 259 263 268 274 281 287 290 292 294
133 133 136 140 144 147 151 155 160 168 175 179 185 190 192 196 196 194 196 197 197 200 203 207 217 228 236 239 241 246 257 267 272 276 279 282 284 286 292 299 305 304 299 297 297 299 302 306 310 312 316 319 319 317 317 314 310 302 292 281 274 269 267 266 266 266 261 254 251 253 255 253 250 250 252 254 257 260 266 275 281 285 289 291 292
135 135 135 134 137 142 146 149 154 160 164 167 175 179 179 183 187 189 191 192 195 199 203 210 219 223 231 247 254 252 258 269 277 281 286 290 294 300 305 307 307 308 308 306 303 300 300 302 305 307 310 312 313 313 313 312 311 309 305 298 289 281 276 273 270 266 258 252 252 256 255 251 249 248 248 250 253 257 264 272 277 282 287 289 289
134 132 132 133 136 140 143 144 147 152 157 161 167 172 175 177 180 182 183 184 188 194 202 213 223 227 237 265 291 291 285 284 284 285 289 297 303 309 313 312 312 313 312 311 310 307 305 304 304 303 304 306 307 309 310 310 309 307 305 301 297 289 280 271 266 260 255 255 258 258 254 250 247 246 246 247 252 257 263 270 275 279 283 286 287
131 129 130 133 135 136 139 144 146 150 155 158 161 166 169 171 173 175 177 178 181 188 203 219 236 255 264 284 315 319 315 311 310 311 316 322 326 329 327 322 320 319 317 316 316 314 312 311 310 309 308 308 309 309 309 309 309 309 309 305 300 292 280 269 261 259 260 264 264 259 253 250 247 247 247 250 255 261 264 269 274 278 281 285 286
131 131 133 136 139 141 143 146 148 151 155 157 159 163 165 166 169 172 175 182 190 197 213 227 243 264 274 313 338 328 318 318 324 328 332 335 335 335 332 327 322 319 316 316 315 313 312 312 312 312 313 314 314 313 311 308 307 309 311 310 304 297 289 280 274 272 271 270 265 259 254 252 251 250 251 255 259 264 268 272 276 278 279 282 284
139 140 141 143 147 148 149 150 152 154 156 158 161 165 167 169 175 180 184 192 198 204 218 233 246 255 251 29 2 325 308 310 318 320 323 325 324 322 321 319 316 315 315 315 314 313 313 312 313 314 315 317 317 314 309 307 306 307 309 310 307 303 299 292 285 281 277 271 264 259 255 255 254 254 255 260 264 267 270 273 275 277 279 280 284
145 147 148 149 151 152 154 155 156 157 160 162 165 168 171 175 180 183 190 198 206 213 222 232 241 236 215 204 264 287 293 303 307 303 304 306 305 308 311 311 310 312 313 315 316 315 314 313 313 314 314 315 316 312 305 300 300 301 301 302 303 304 303 298 291 286 280 273 267 263 260 258 257 258 260 264 267 270 273 275 276 278 280 282 285
149 150 150 151 154 156 158 158 158 160 163 164 165 169 173 180 187 194 202 211 217 223 225 227 231 233 229 236 253 268 281 289 289 289 294 297 298 304 307 307 307 309 310 312 313 312 310 309 310 311 311 311 311 310 304 298 294 293 292 293 296 298 298 296 293 290 286 281 276 271 264 259 258 260 263 266 269 272 275 276 277 280 282 284 287
155 155 155 156 157 158 159 159 160 163 164 166 170 176 182 190 199 207 215 219 221 225 225 227 233 237 242 251 260 266 273 279 283 288 294 298 301 304 304 304 305 306 306 308 308 305 304 304 304 305 306 307 307 307 305 300 295 291 289 289 289 289 289 288 287 288 289 286 281 274 267 263 263 265 267 269 272 274 275 277 279 283 285 285 285
161 161 161 160 161 161 161 162 165 168 171 175 181 186 193 202 207 211 215 219 222 228 232 239 247 252 254 260 267 272 277 283 288 292 295 297 299 300 299 299 301 301 302 304 304 302 301 301 300 301 302 303 304 306 305 303 298 291 287 286 284 284 285 284 282 282 283 281 278 275 271 268 269 269 271 273 274 274 277 280 282 283 284 283 282
165 166 166 166 166 167 167 168 172 177 181 186 191 194 198 203 206 210 215 220 227 235 241 247 256 263 267 272 278 281 284 287 289 291 293 295 295 296 296 295 296 297 299 300 300 299 298 297 297 298 299 300 301 302 302 301 297 290 285 283 281 280 281 282 280 279 279 277 276 276 274 272 273 272 273 276 277 276 279 281 281 281 282 281 282
169 170 170 172 173 172 172 176 179 183 187 191 195 199 202 205 209 216 223 229 236 243 249 256 263 270 275 280 283 285 287 289 289 290 292 292 293 293 293 292 293 294 295 296 296 296 296 295 295 297 297 297 298 298 298 297 296 291 287 284 281 280 281 279 275 274 273 272 271 272 272 272 273 274 274 276 277 277 279 281 280 281 283 282 282
172 170 170 174 175 176 179 181 183 188 193 196 199 205 211 216 222 228 233 240 246 253 260 266 272 276 279 282 284 286 286 287 287 289 290 291 291 291 290 290 291 291 292 294 295 294 294 294 294 294 294 294 295 295 294 294 293 290 288 285 283 282 281 278 275 273 271 269 270 271 271 272 274 274 275 276 276 277 279 279 279 280 281 281 281
169 169 170 173 174 177 182 186 189 197 201 205 213 220 224 230 236 239 243 250 255 261 267 271 275 278 280 281 282 284 285 285 286 287 288 288 289 290 289 288 288 289 290 291 293 293 293 294 293 293 292 292 292 293 293 293 292 291 289 286 283 281 279 277 275 274 272 271 271 271 271 272 273 273 274 275 276 276 276 276 276 278 278 279 281
167 168 170 174 178 184 190 195 202 209 214 219 226 230 234 239 244 246 252 257 261 265 270 274 277 279 280 282 283 284 284 285 286 286 287 287 289 290 289 288 287 287 288 290 291 292 293 294 293 291 290 290 290 290 291 292 292 291 290 288 285 283 281 279 277 276 276 275 275 274 273 272 273 273 274 275 275 274 274 275 276 277 278 278 281
171 176 183 191 199 205 211 216 221 226 231 235 239 242 245 250 253 255 258 262 266 270 274 276 278 279 280 282 284 284 285 285 286 286 288 289 290 291 290 289 289 288 288 289 290 292 293 294 293 291 290 289 289 290 290 290 291 291 290 289 288 285 283 282 281 281 280 279 278 277 276 276 276 276 276 276 275 274 275 276 277 278 279 281 283